This is the latest recevied weather packets stored in our database for station/object YC0TBU-3. If no packets are shown the sender has not sent any weather packets the latest 10 day(s).
| Time | Temp. | Humidity | Pressure | Rain* | Wind** | Luminosity | Snow |
|---|---|---|---|---|---|---|---|
| 1777333737 | 25° C | 52% | 1012.9 hPa | - | - | - | - |
| 1777333037 | 25.56° C | 53% | 1013 hPa | - | - | - | - |
| 1777332311 | 25.56° C | 51% | 1012.9 hPa | - | - | - | - |
| 1777331606 | 25.56° C | 52% | 1010.6 hPa | - | - | - | - |
| 1777330902 | 25° C | 53% | 1012.7 hPa | - | - | - | - |
| 1777330196 | 25° C | 52% | 1010.5 hPa | - | - | - | - |
| 1777329491 | 25.56° C | 52% | 1011.4 hPa | - | - | - | - |
| 1777327375 | 25.56° C | 51% | 1010.7 hPa | - | - | - | - |
| 1777326670 | 25.56° C | 51% | 1010.3 hPa | - | - | - | - |
| 1777325967 | 25.56° C | 51% | 1010.3 hPa | - | - | - | - |
| 1777325271 | 26.11° C | 51% | 1011.1 hPa | - | - | - | - |
| 1777324541 | 25.56° C | 51% | 1010.3 hPa | - | - | - | - |
| 1777322424 | 26.11° C | 52% | 1011.1 hPa | - | - | - | - |
| 1777321719 | 26.11° C | 52% | 1012.4 hPa | - | - | - | - |
| 1777321014 | 26.11° C | 54% | 1011.3 hPa | - | - | - | - |
| 1777320309 | 26.11° C | 55% | 1011.3 hPa | - | - | - | - |
| 1777319604 | 26.11° C | 54% | 1012.5 hPa | - | - | - | - |
| 1777318899 | 26.11° C | 53% | 1011.7 hPa | - | - | - | - |
| 1777318194 | 26.11° C | 53% | 1011.5 hPa | - | - | - | - |
| 1777317489 | 26.11° C | 53% | 1013.2 hPa | - | - | - | - |
| 1777316790 | 26.67° C | 53% | 1010.8 hPa | - | - | - | - |
| 1777316063 | 26.11° C | 53% | 1012.5 hPa | - | - | - | - |
| 1777315358 | 26.11° C | 53% | 1011.2 hPa | - | - | - | - |
| 1777314654 | 26.67° C | 53% | 1012.6 hPa | - | - | - | - |
| 1777313948 | 26.11° C | 53% | 1012.5 hPa | - | - | - | - |
* Rain since midnight (hover to see other rain measurements)
** Current wind speed in m/s (hover to see current wind gust speed)